{"data":{"norad_id":55296,"epoch":"2026-05-25T03:22:24.485088Z","epoch_age_seconds":73056,"freshness":"FRESH","line1":"1 55296U 23010AD  26145.14056117  .00000570  00000+0  55544-4 0  9994","line2":"2 55296  69.9987 191.5771 0003639 266.2238  93.8505 14.98328015185609","mean_motion":14.98328015,"eccentricity":0.0003639,"inclination_deg":69.9987,"raan_deg":191.5771,"arg_perigee_deg":266.2238,"mean_anomaly_deg":93.8505,"bstar":5.5544e-5,"rev_number":18560,"period_min":96.107126449211,"perigee_km":569.53285197315,"apogee_km":574.59120682675,"semimajor_km":6950.1990293999,"source":"CELESTRAK","updated_at":"2026-05-25T13:38:17.753040Z"}}